SCP
0 0 0 0 0 0 0 0 0 0 1 1 1 0 0 0 0 0 0 0 0 0 0 0 0 0 0 0 0 0 1 1 1 2 2 1 1 1 1 1 1 1 1 1
0 0 0 0 0 0 0 0 0 0 1 1 1 0 0 0 0 0 0 0 0 0 0 0 0 0 0 0 0 0 1 1 2 2 2 2 2 1 2 2 2 2 2 1
0 0 0 0 0 0 0 0 0 0 0 1 1 0 0 0 0 0 0 0 0 0 0 0 1 1 1 1 1 1 1 1 2 2 3 3 2 2 2 2 2 2 2 2
0 0 0 0 0 0 0 0 0 0 0 0 0 0 0 0 0 0 0 0 0 0 0 0 1 1 1 1 1 1 1 1 2 2 3 3 3 2 2 2 3 3 3 3
0 0 0 0 0 0 0 0 0 0 0 0 0 0 0 0 0 0 0 0 0 0 0 0 1 1 1 1 1 1 1 1 1 2 2 2 2 2 2 3 3 3 3 3
0 0 0 0 0 0 0 0 0 0 0 0 0 0 0 0 0 0 0 1 1 1 0 0 0 0 1 1 1 1 1 1 1 1 1 1 2 2 3 3 3 3 3 4
0 0 0 0 0 0 0 0 0 0 0 0 0 0 0 0 0 0 0 0 1 1 0 0 1 0 0 0 0 0 1 1 1 1 1 1 2 2 3 3 4 4 3 4
0 0 0 0 0 0 0 0 0 0 0 0 0 0 0 0 0 0 0 0 1 1 0 0 1 1 1 0 0 0 1 1 1 1 1 1 2 2 3 3 4 4 4 4
0 0 0 0 0 0 0 0 0 0 0 0 0 0 0 0 0 0 0 0 1 0 0 0 0 1 1 1 1 1 1 1 1 1 1 1 1 2 2 3 4 4 4 4
0 0 0 0 0 0 0 0 0 0 0 0 0 0 0 0 0 0 0 0 1 0 0 0 0 0 1 1 1 1 1 1 1 1 1 1 1 2 2 3 4 4 4 4
0 0 0 0 0 0 0 0 0 0 0 0 0 0 0 0 0 0 0 0 0 0 0 0 0 0 0 1 1 1 1 1 2 2 2 2 1 2 3 3 4 4 4 4
0 0 0 0 0 0 0 0 0 0 0 0 0 0 0 0 0 0 0 0 0 0 0 0 0 0 0 1 1 1 1 1 1 2 2 2 2 2 2 3 3 3 3 3
0 0 0 0 0 0 0 0 0 0 0 0 0 0 0 0 0 0 0 0 0 0 0 0 0 0 0 1 1 1 1 1 1 1 1 2 2 2 2 2 2 2 2 2
0 0 0 0 0 0 0 0 0 0 0 0 0 0 0 0 0 0 0 0 0 0 0 1 1 1 1 1 1 1 1 1 1 1 1 1 2 2 2 1 1 1 2 2
0 0 0 0 0 0 0 0 0 0 0 0 0 0 0 0 0 0 0 0 0 0 1 1 1 1 1 1 1 1 2 2 1 1 1 1 1 1 1 1 1 1 1 1
0 0 0 0 0 0 0 0 0 0 0 0 0 0 0 0 0 0 0 0 0 0 0 1 1 1 1 1 1 1 1 2 2 1 1 1 1 1 1 1 1 1 1 1
0 0 0 0 0 0 0 0 0 0 0 0 0 0 0 0 0 0 0 0 0 0 0 0 1 1 1 1 1 1 1 1 1 1 1 1 1 1 1 1 1 1 1 1
0 0 0 0 0 0 0 0 0 0 0 0 0 0 0 0 0 0 0 0 0 0 0 0 0 0 1 1 1 1 1 1 1 1 1 1 1 1 1 1 1 1 1 1
0 0 0 0 0 0 0 0 0 0 0 0 0 0 0 0 0 0 0 0 0 0 0 0 0 1 1 1 1 1 1 1 1 1 1 1 1 1 1 1 1 1 1 1
0 0 0 0 0 0 0 0 0 0 0 0 0 0 0 0 0 0 0 0 0 0 0 0 0 1 1 1 1 1 1 1 1 1 1 1 1 1 1 1 1 1 1 1
0 0 0 0 0 0 0 0 0 0 0 0 0 0 0 0 0 0 0 0 0 0 0 0 0 0 0 0 0 0 0 0 1 1 1 1 1 1 1 1 1 2 1 1
0 0 0 0 0 0 0 0 0 0 0 0 0 0 0 0 0 0 0 0 0 0 0 0 0 0 0 0 0 0 0 0 0 1 1 1 1 1 1 1 1 1 2 2
0 0 0 0 0 0 0 0 0 0 0 0 0 0 0 0 0 0 0 0 0 0 0 0 0 0 0 0 0 0 0 0 0 0 1 1 1 1 1 1 1 1 2 2
0 0 0 0 0 0 0 0 0 0 0 0 0 0 0 0 0 0 0 0 0 0 0 0 0 0 0 0 0 0 0 0 0 0 1 1 1 1 1 1 2 2 2 2
0 0 0 0 0 0 0 0 0 0 0 0 0 0 0 0 0 0 0 0 0 0 0 0 0 0 0 0 0 0 0 0 0 1 0 0 1 1 1 1 2 2 2 2
0 0 0 0 0 0 0 0 0 0 0 0 0 0 0 0 0 0 0 0 0 0 0 0 0 0 0 0 0 0 0 0 1 1 1 0 0 1 1 1 1 1 1 1
Wind_Speed
3 5 5 4 5 4 4 4 3 1 1 4 5 4 3 5 6 6 6 6 6 5 4 4 5 6 6 6 5 5 5 4 3 2 2 1 1 1 1 1 2 2 1 2
6 6 4 3 4 6 7 6 4 2 1 4 4 4 3 4 5 5 6 6 5 5 5 5 5 6 6 6 5 5 4 4 4 2 1 1 1 1 2 1 1 1 1 1
8 2 3 5 6 6 6 6 4 3 2 4 4 4 5 4 4 3 4 4 4 4 5 6 6 6 6 6 5 4 4 4 4 3 2 2 2 1 2 1 1 0 1 1
6 4 4 6 5 6 5 3 5 5 6 2 4 3 3 4 4 4 4 4 4 5 5 5 6 6 5 5 4 4 5 5 4 4 3 3 2 1 1 1 1 1 1 1
4 4 5 6 4 6 2 2 4 5 6 5 4 5 2 3 3 3 3 4 4 5 5 5 5 5 5 4 4 4 4 4 4 4 4 3 2 1 1 1 1 1 1 1
4 3 4 4 3 4 4 5 4 5 6 6 4 6 1 1 1 1 2 3 4 5 5 5 5 5 5 4 4 4 4 4 4 4 4 4 3 3 2 2 1 1 1 1
6 6 5 4 5 6 6 6 4 6 5 3 2 5 1 2 2 2 2 2 3 4 5 5 5 5 5 5 5 5 5 4 4 5 4 4 4 3 3 2 2 2 1 1
6 6 5 5 6 5 7 7 5 4 3 2 4 4 2 2 1 1 0 2 3 4 4 4 5 5 5 5 5 4 4 4 4 4 4 3 3 2 2 2 2 2 2 2
5 4 4 3 3 5 6 6 5 6 4 5 3 3 3 2 1 1 2 3 3 3 4 4 5 5 5 5 5 4 4 4 4 4 3 3 3 2 2 3 3 2 2 2
5 5 4 4 4 2 3 4 5 6 5 5 4 5 3 3 2 2 2 2 2 3 3 3 4 4 4 4 4 4 3 3 4 3 3 2 3 2 2 3 3 3 3 3
6 6 5 6 6 5 5 6 5 5 5 5 4 2 1 2 1 2 1 1 2 2 3 3 3 3 4 4 4 3 3 3 3 3 3 4 3 3 3 3 2 3 3 3
5 6 5 5 2 2 6 6 7 7 6 7 6 1 4 1 1 1 1 1 2 2 3 3 3 3 3 4 3 3 2 2 2 3 3 3 3 4 4 3 3 4 4 3
4 6 6 6 7 6 6 6 7 8 7 7 8 3 4 2 1 1 1 1 2 2 3 3 3 2 2 2 3 2 2 1 1 2 3 3 3 4 4 4 4 4 4 4
4 7 8 7 3 4 7 7 8 10 8 8 9 7 4 2 2 1 2 2 2 3 3 2 2 2 2 2 2 2 1 1 1 2 3 3 3 4 4 4 4 4 4 4
5 7 8 7 4 5 7 9 10 12 12 11 9 9 7 4 3 3 2 3 3 3 2 2 1 1 1 1 1 1 1 0 1 2 2 2 3 3 3 3 4 4 4 4
5 6 6 7 6 6 8 10 12 13 12 12 11 10 5 3 2 3 3 3 3 3 2 1 1 1 0 0 1 1 0 1 1 2 2 1 2 2 3 3 3 4 4 5
5 6 6 7 5 7 11 10 11 10 9 10 10 7 3 3 2 2 2 3 3 2 2 1 0 0 0 0 1 1 1 1 1 1 1 1 2 2 3 3 3 4 5 5
7 7 5 5 6 11 2 1 5 7 8 8 7 5 4 3 2 2 2 2 2 1 1 1 0 1 1 1 1 1 1 1 1 2 2 2 2 3 3 3 4 4 4 4
8 8 6 6 8 8 4 3 4 7 7 6 8 6 3 3 4 2 1 1 1 1 1 0 1 1 1 1 1 1 1 1 1 2 3 3 3 3 3 4 4 4 5 5
6 8 7 7 8 7 2 3 3 5 6 4 6 6 5 5 5 2 2 2 1 1 1 1 1 1 2 2 1 1 1 2 2 3 3 4 4 4 4 4 4 4 4 4
8 8 10 10 9 7 0 4 5 7 1 2 4 5 7 6 2 3 4 2 2 2 2 2 2 2 2 2 1 1 2 3 4 4 4 4 4 4 4 4 4 4 4 4
9 8 10 9 10 7 5 6 6 2 2 1 2 3 4 3 3 4 4 3 3 2 2 2 2 2 2 2 1 2 3 4 4 4 4 4 4 3 3 4 3 3 3 3
8 7 5 7 4 2 5 4 1 1 1 1 2 3 4 4 4 4 4 3 2 2 2 1 1 1 1 1 2 2 3 4 4 4 4 4 4 3 3 3 3 3 3 3
6 4 6 7 7 4 3 3 3 2 2 1 3 4 5 5 5 4 3 3 2 1 1 1 1 0 1 2 2 2 3 3 4 4 4 4 4 3 3 3 3 3 3 3
5 6 8 9 5 4 5 4 3 2 2 2 3 4 4 4 4 4 3 2 2 1 1 1 1 1 2 2 2 3 3 3 4 4 4 4 4 4 4 3 3 4 3 3
7 8 8 7 5 5 5 5 5 4 4 4 4 4 3 4 4 4 3 2 2 2 1 1 1 2 2 2 3 3 3 4 4 4 4 4 3 3 3 3 3 3 4 4
Wind_Direction
202 218 217 219 231 257 252 247 248 236 192 239 244 247 199 192 209 217 212 210 205 199 187 172 170 175 179 177 183 171 167 161 150 154 170 159 140 127 109 66 49 70 55 55
206 214 228 231 219 233 242 245 241 211 203 252 253 248 210 197 209 221 223 209 206 198 181 172 172 172 174 172 183 183 173 164 159 158 164 151 124 119 82 80 88 104 99 79
223 193 201 208 211 226 232 245 251 253 209 216 252 226 192 179 194 209 226 220 210 202 190 178 173 168 168 175 181 182 174 168 164 160 159 145 133 169 159 152 116 100 105 102
229 227 212 213 220 235 228 231 246 242 246 218 253 259 179 182 186 194 205 209 211 201 196 185 174 168 172 177 178 184 176 176 164 162 178 185 188 189 188 172 152 165 165 158
205 209 220 222 229 234 241 216 227 241 250 248 227 251 161 152 197 204 205 203 201 198 193 190 187 177 165 162 168 183 176 173 165 177 179 206 204 204 185 177 172 186 162 190
235 216 242 249 230 216 180 186 187 220 236 238 241 246 222 138 282 264 212 198 191 188 189 188 182 174 161 159 162 173 180 176 173 189 197 207 201 203 194 198 196 202 177 200
213 207 204 219 202 182 209 227 219 210 212 219 191 241 246 44 351 307 272 199 181 179 181 180 177 176 167 166 169 171 176 178 182 196 205 208 215 217 209 201 193 213 206 210
218 201 191 207 231 216 215 238 251 257 245 210 195 230 129 68 20 342 217 154 146 160 168 175 175 176 169 166 167 172 175 181 187 203 210 211 207 221 215 216 213 223 229 231
230 201 163 195 233 232 212 224 263 272 263 254 207 195 178 147 119 89 99 125 139 147 157 168 171 173 169 166 168 176 179 184 192 205 204 204 203 210 222 232 227 234 243 247
254 232 185 167 181 181 258 208 218 241 248 244 229 224 209 173 165 143 131 132 129 142 150 156 163 172 169 163 169 176 188 189 190 202 201 209 217 215 233 239 237 246 249 249
244 240 192 189 210 205 185 199 221 237 256 261 250 207 93 189 185 203 189 160 151 150 142 139 151 164 164 161 164 174 181 189 194 205 211 216 217 224 228 241 241 250 250 247
227 251 229 208 180 266 234 228 225 239 234 246 265 243 107 146 178 215 204 165 150 141 139 134 140 149 157 163 169 181 191 199 204 214 219 228 228 232 238 240 242 253 260 263
194 232 229 198 187 190 211 215 230 247 250 243 245 226 122 149 151 183 179 153 147 140 127 130 135 142 152 161 168 172 197 207 215 223 225 228 232 239 244 244 245 252 257 260
234 236 245 250 261 199 211 206 216 230 238 242 244 257 233 235 254 223 176 158 150 144 135 127 129 142 151 161 178 168 182 200 232 228 231 238 247 246 247 251 254 252 254 260
241 246 244 258 264 234 234 226 219 231 246 254 257 256 258 257 248 228 198 172 163 152 141 132 134 133 134 141 197 170 166 196 242 242 240 247 257 256 255 252 253 254 254 255
238 249 243 237 233 236 244 243 235 237 245 249 258 262 265 272 228 204 189 179 179 166 151 129 121 116 147 159 223 211 224 250 243 249 253 252 261 263 262 263 260 256 254 253
218 234 243 242 231 243 245 240 235 230 232 239 247 252 232 220 204 204 196 197 196 180 171 184 176 355 339 302 279 269 248 242 250 260 282 276 273 275 275 269 264 262 258 254
230 231 242 251 232 243 261 105 230 233 237 237 247 248 227 230 196 195 196 195 190 184 189 189 57 12 345 356 333 314 292 255 260 280 301 300 286 275 274 269 265 263 260 256
228 225 231 240 245 255 244 201 210 228 239 236 237 232 210 184 179 173 147 180 186 170 150 111 23 16 23 22 359 334 325 297 290 301 304 301 289 283 280 273 271 270 266 262
208 224 230 231 245 250 235 160 205 236 238 213 222 214 187 183 214 183 141 158 144 123 118 92 78 65 45 28 22 15 354 330 321 313 304 299 295 287 280 279 281 277 269 265
189 205 222 231 242 254 115 141 183 224 260 122 211 205 191 205 258 106 135 139 120 100 98 101 96 71 46 24 10 356 342 336 326 315 307 305 302 292 286 285 285 280 278 277
212 210 215 222 234 235 135 164 200 274 43 144 193 191 192 177 121 124 131 126 118 107 101 102 101 76 54 28 344 333 336 334 327 315 306 306 305 302 295 289 287 283 277 273
229 234 231 226 238 72 161 194 219 318 237 172 170 163 163 157 150 144 140 132 123 113 108 102 106 82 49 23 348 335 339 336 328 320 320 320 315 307 296 286 281 276 271 272
221 235 235 234 231 220 207 220 217 218 220 162 162 160 164 165 160 158 156 152 146 131 121 122 128 329 348 350 336 331 337 332 323 320 320 321 319 313 300 290 281 278 275 275
237 215 229 236 234 231 221 221 212 200 187 160 156 168 170 164 168 169 172 172 175 174 170 188 237 291 313 325 323 329 330 320 315 314 315 315 318 315 303 296 296 284 278 289
224 229 232 240 227 233 228 209 201 195 189 174 164 167 173 174 174 179 183 184 191 200 210 228 257 278 294 312 321 328 322 312 308 307 312 313 312 311 309 302 300 306 283 291